Content
SEND FEEDBACK

Daily
Averages
Monthly
Summary
Russia

KUZ'MIKHA, RUSSIA


Home > Europe > Russia
Elevation: 1539 feet     Latitude: 52 16N     Longitude: 104 19E

WEATHER
 
SELECT A DAY
Number of Records: 197,705;   Date Range: 3/5/97 - 7/20/14
 
SHARE

PRINT THIS DATA

[ ← Previous Day ]
WEATHER ALMANAC - FEBRUARY 13, 2013
[ Next Day → ]
[ °C ]   °F
Weather ElementAverageHighLow
Temperature5.1 °F10.4 °F (4:00 pm)-4 °F (11:30 pm)
Dewpoint-0.8 °F4 °F (3:00 am)-9.4 °F (11:30 pm)
Humidity76.8 %92 % (4:00 am)61 % (8:30 pm)
Barometer30.30 in30.52 in (3:00 pm)30.21 in (12:30 am)
Wind Speed6.1 mph13.4 mph (1:00 pm)
Wind Gust20.1 mph (1:30 pm)
Weather ElementAverage
Visibility4.7 mi
Wind DirectionWSW (244.2 °)

Weather ElementTotal
Precipitation---
Heating Degree Days61.8 (Base 65)
Averaged from 51 records on February 13, 2013
WEATHER CONDITIONS BREAKOUT
WIND DIRECTION BREAKOUT
WEATHER BY HOUR - FEBRUARY 13, 2013
[ °C ]   °F
Local TimeTemperatureDewpointHumidityBarometerVisibilityWind DirectionWind SpeedGust SpeedPrecipitationEventsConditions
12:30 AM3.2 °F-4.0 °F72 %30.21 in6.2 miSSW (200°)4.5 mphSnowLight Snow Showers
1:00 AM3.2 °F-2.2 °F78 %30.21 in6.2 miSSE (150°)4.5 mphOvercast
1:30 AM3.2 °F-2.2 °F78 %30.21 in3.1 miSW (230°)4.5 mphSnowLight Snow Showers
2:00 AM6.8 °F1.4 °F79 %30.21 in2.5 miWest (270°)6.7 mphSnowLight Snow Showers
2:30 AM5.0 °F-0.4 °F78 %30.21 in2.5 miWest (280°)6.7 mphSnowLight Snow Showers
3:00 AM5.0 °F1.4 °F85 %30.21 in2.5 miWNW (290°)4.5 mphSnowLight Snow Showers
3:00 AM8.0 °F4.0 °F74 %30.42 in6.0 miWest (270°)4.5 mphSnowLight Snow Showers
3:30 AM5.0 °F1.4 °F85 %30.21 in3.1 miVariable2.2 mphSnowLight Snow Showers
4:00 AM5.0 °F3.2 °F92 %30.21 in3.1 miWNW (300°)2.2 mphSnowLight Snow Showers
4:30 AM5.0 °F3.2 °F92 %30.21 in2.5 miWSW (240°)2.2 mphSnowLight Snow Showers
5:00 AM5.0 °F1.4 °F85 %30.21 in6.2 miSouth (170°)4.5 mphSnowLight Snow Showers
5:30 AM5.0 °F3.2 °F92 %30.21 in2.5 miVariable2.2 mphSnowLight Snow Showers
6:00 AM-0.4 °F-4.0 °F85 %30.24 in2.2 miNW (310°)4.5 mphSnowLight Snow Showers
6:30 AM3.2 °F1.4 °F92 %30.24 in2.2 miNW (310°)6.7 mphSnowLight Snow Showers
7:00 AM3.2 °F-0.4 °F85 %30.24 in6.2 miNW (310°)6.7 mphSnowLight Snow Showers
7:30 AM1.4 °F-0.4 °F92 %30.24 in6.2 miWNW (300°)8.9 mphSnowLight Snow Showers
8:00 AM3.2 °F-0.4 °F85 %30.24 in2.5 miWNW (300°)6.7 mphSnowLight Snow Showers
8:30 AM3.2 °F-0.4 °F85 %30.27 in1.9 miWNW (290°)6.7 mphSnowLight Snow Showers
9:00 AM3.2 °F1.4 °F92 %30.27 in2.5 miWest (280°)6.7 mphSnowLight Snow Showers
9:00 AM6.0 °F3.0 °F83 %30.49 in6.0 miWest (280°)4.5 mphSnowLight Snow Showers
9:30 AM3.2 °F-0.4 °F85 %30.30 in6.2 miWest (280°)8.9 mphOvercast
10:00 AM5.0 °F1.4 °F85 %30.30 in6.2 miWest (270°)6.7 mphOvercast
10:30 AM3.2 °F1.4 °F92 %30.30 in2.2 miWest (280°)6.7 mphSnowLight Snow Showers
11:00 AM5.0 °F1.4 °F85 %30.33 in2.5 miWest (270°)8.9 mphSnowLight Snow Showers
11:30 AM6.8 °F1.4 °F79 %30.33 in6.2 miWest (270°)8.9 mphOvercast
12:00 PM6.8 °F-0.4 °F72 %30.33 in6.2 miWNW (290°)11.2 mphOvercast
12:30 PM6.8 °F-0.4 °F72 %30.33 in6.2 miWNW (290°)11.2 mphOvercast
1:00 PM6.8 °F-2.2 °F67 %30.33 in6.2 miWNW (290°)13.4 mphOvercast
1:30 PM6.8 °F-2.2 °F67 %30.33 in6.2 miWNW (290°)13.4 mph20.1 mphOvercast
2:00 PM6.8 °F-0.4 °F72 %30.33 in6.2 miNW (310°)13.4 mphOvercast
2:30 PM8.6 °F-0.4 °F67 %30.33 in6.2 miWNW (300°)8.9 mphOvercast
3:00 PM8.6 °F-0.4 °F67 %30.33 in2.5 miNW (320°)8.9 mphSnowLight Snow
3:00 PM9.0 °F2.0 °F63 %30.52 in2.0 miNW (310°)4.5 mphSnowLight Snow Showers
3:30 PM8.6 °F1.4 °F73 %30.33 in6.2 miNW (310°)6.7 mphSnowLight Snow
4:00 PM10.4 °F1.4 °F67 %30.33 in6.2 miWNW (300°)6.7 mphOvercast
4:30 PM8.6 °F-0.4 °F67 %30.33 in6.2 miWNW (290°)4.5 mphOvercast
5:00 PM8.6 °F-0.4 °F67 %30.33 in6.2 miWNW (290°)6.7 mphOvercast
5:30 PM8.6 °F-0.4 °F67 %30.30 in6.2 miWNW (300°)4.5 mphOvercast
6:00 PM8.6 °F-0.4 °F67 %30.30 in6.2 miWNW (290°)4.5 mphOvercast
6:30 PM8.6 °F-2.2 °F62 %30.30 in6.2 miWNW (290°)6.7 mphOvercast
7:00 PM8.6 °F-2.2 °F62 %30.30 inWest (280°)4.5 mphClear
7:30 PM8.6 °F-2.2 °F62 %30.30 inWest (260°)4.5 mphClear
8:00 PM8.6 °F-2.2 °F62 %30.30 inWest (270°)4.5 mphClear
8:30 PM6.8 °F-4.0 °F61 %30.30 inWNW (290°)2.2 mphClear
9:00 PM3.2 °F-4.0 °F72 %30.30 inSSE (150°)2.2 mphClear
9:00 PM5.0 °F-1.0 °F67 %30.51 in6.0 miCalmPartly Cloudy
9:30 PM-2.2 °F-7.6 °F78 %30.30 inENE (60°)6.7 mphClear
10:00 PM1.4 °F-2.2 °F85 %30.30 inEast (100°)4.5 mphClear
10:30 PM-2.2 °F-7.6 °F78 %30.30 inEast (90°)4.5 mphClear
11:00 PM-2.2 °F-7.6 °F78 %30.30 in6.2 miVariable2.2 mphOvercast
11:30 PM-4.0 °F-9.4 °F78 %30.30 inEast (90°)8.9 mphClear
Hourly data recorded from UIII, located miles away from Kuz'mikha, Russia







STORIES FROM OUR PARTNERS